TRA97H EHAM-LGRP

Flight info

Callsign TRA97H
Flight time 3h 20m
Altitude 35000
Route EDUPO Z739 MISGO DCT DOJOH DCT DODEN DCT NEGIX DCT DINKU DCT BESNI DCT LATLO DCT OBEDI DCT NAKUM DCT OLEZE DCT TEBLI DCT MEDUX UM867 KOGAT DCT ERANA DCT TSL UN130 MES UN139 LURUS UL995 CODIC
Aircraft A21N/M-SBDE2E3FGHIJ1J5M1P2RWXYZ/LB1D1G1

Departure

Time 2026-04-30 14:47
Airport Amsterdam Airport Schiphol (EHAM)

Arrival

Time 2026-04-30 18:07
Airport Rhodes International Airport "Diagoras" (LGRP)
Time Latitude Longitude Altitude Speed Heading
2026-04-30 14:00 52.30625 4.76633 4 ft 0 kts 238°
2026-04-30 14:31 52.30626 4.76636 4 ft 0 kts 238°
2026-04-30 14:31 52.30641 4.76670 20 ft 0 kts 236°
2026-04-30 14:32 52.30658 4.76740 4 ft 0 kts 278°
2026-04-30 14:32 52.30649 4.76757 4 ft 0 kts 326°
2026-04-30 14:32 52.30629 4.76786 4 ft 0 kts 307°
2026-04-30 14:33 52.30621 4.76804 4 ft 0 kts 303°
2026-04-30 14:35 52.30622 4.76803 4 ft 1 kts 303°
2026-04-30 14:35 52.30657 4.76749 4 ft 8 kts 328°
2026-04-30 14:35 52.30706 4.76770 4 ft 9 kts 76°
2026-04-30 14:36 52.30667 4.76863 4 ft 11 kts 134°
2026-04-30 14:36 52.30655 4.76991 4 ft 12 kts 91°
2026-04-30 14:36 52.30649 4.77138 4 ft 14 kts 94°
2026-04-30 14:36 52.30643 4.77299 4 ft 15 kts 93°
2026-04-30 14:37 52.30639 4.77473 4 ft 16 kts 87°
2026-04-30 14:37 52.30709 4.77592 4 ft 17 kts
2026-04-30 14:37 52.30832 4.77603 4 ft 18 kts
2026-04-30 14:37 52.30959 4.77615 4 ft 19 kts
2026-04-30 14:38 52.31093 4.77628 4 ft 18 kts
2026-04-30 14:38 52.31222 4.77640 4 ft 19 kts
2026-04-30 14:38 52.31358 4.77652 4 ft 20 kts
2026-04-30 14:38 52.31489 4.77594 4 ft 21 kts 314°
2026-04-30 14:39 52.31576 4.77413 4 ft 21 kts 275°
2026-04-30 14:39 52.31571 4.77172 4 ft 22 kts 266°
2026-04-30 14:39 52.31562 4.76927 4 ft 22 kts 266°
2026-04-30 14:40 52.31545 4.76483 5 ft 18 kts 266°
2026-04-30 14:40 52.31538 4.76270 4 ft 19 kts 267°
2026-04-30 14:40 52.31531 4.76046 5 ft 20 kts 266°
2026-04-30 14:40 52.31522 4.75813 4 ft 21 kts 267°
2026-04-30 14:41 52.31515 4.75570 4 ft 22 kts 266°
2026-04-30 14:41 52.31506 4.75317 4 ft 23 kts 266°
2026-04-30 14:41 52.31498 4.75058 4 ft 15 kts 266°
2026-04-30 14:41 52.31492 4.74908 4 ft 9 kts 267°
2026-04-30 14:42 52.31489 4.74792 4 ft 11 kts 267°
2026-04-30 14:42 52.31507 4.74675 4 ft 12 kts 333°
2026-04-30 14:42 52.31560 4.74663 4 ft 5 kts 360°
2026-04-30 14:42 52.31561 4.74663 4 ft 0 kts 359°
2026-04-30 14:43 52.31564 4.74663 4 ft 2 kts 359°
2026-04-30 14:43 52.31588 4.74663 5 ft 5 kts
2026-04-30 14:44 52.31638 4.74676 5 ft 9 kts 12°
2026-04-30 14:44 52.31668 4.74761 5 ft 9 kts 89°
2026-04-30 14:44 52.31669 4.74782 5 ft 0 kts 87°
2026-04-30 14:46 52.31669 4.74783 5 ft 1 kts 87°
2026-04-30 14:46 52.31677 4.75067 2 ft 59 kts 86°
2026-04-30 14:46 52.31714 4.76074 4 ft 117 kts 88°
2026-04-30 14:46 52.31758 4.77665 41 ft 156 kts 80°
2026-04-30 14:47 52.31848 4.79403 564 ft 155 kts 88°
2026-04-30 14:47 52.31904 4.81214 1077 ft 161 kts 89°
2026-04-30 14:47 52.31941 4.83081 1591 ft 173 kts 90°
2026-04-30 14:47 52.32001 4.85165 2060 ft 193 kts 90°
2026-04-30 14:48 52.31864 4.87464 2434 ft 216 kts 107°
2026-04-30 14:48 52.31283 4.89836 2984 ft 231 kts 114°
2026-04-30 14:48 52.30627 4.92256 3783 ft 235 kts 116°
2026-04-30 14:48 52.29962 4.94720 4583 ft 239 kts 115°
2026-04-30 14:49 52.29366 4.97278 5398 ft 243 kts 109°
2026-04-30 14:49 52.28891 4.99945 6189 ft 247 kts 108°
2026-04-30 14:49 52.28427 5.02631 6974 ft 250 kts 108°
2026-04-30 14:49 52.27952 5.05382 7711 ft 253 kts 107°
2026-04-30 14:50 52.26980 5.10972 9267 ft 259 kts 107°
2026-04-30 14:50 52.26476 5.13858 10070 ft 263 kts 107°
2026-04-30 14:51 52.25048 5.19534 10970 ft 292 kts 124°
2026-04-30 14:51 52.23789 5.22313 11332 ft 309 kts 126°
2026-04-30 14:51 52.21168 5.28008 12642 ft 320 kts 125°
2026-04-30 14:52 52.19832 5.30941 13351 ft 323 kts 125°
2026-04-30 14:52 52.17135 5.36904 14698 ft 330 kts 125°
2026-04-30 14:52 52.15764 5.39936 15305 ft 334 kts 125°
2026-04-30 14:53 52.12968 5.46118 16444 ft 344 kts 125°
2026-04-30 14:53 52.11541 5.49266 17036 ft 347 kts 125°
2026-04-30 14:54 52.08645 5.55643 18226 ft 354 kts 125°
2026-04-30 14:54 52.05686 5.62132 19257 ft 360 kts 125°
2026-04-30 14:55 52.02682 5.68703 20262 ft 366 kts 125°
2026-04-30 14:55 52.01160 5.72040 20742 ft 368 kts 125°
2026-04-30 14:55 51.98072 5.78777 21668 ft 375 kts 125°
2026-04-30 14:56 51.94928 5.85614 22633 ft 381 kts 125°
2026-04-30 14:56 51.91735 5.92550 23563 ft 387 kts 125°
2026-04-30 14:57 51.90117 5.96060 23973 ft 391 kts 125°
2026-04-30 14:57 51.86830 6.03167 24728 ft 397 kts 125°
2026-04-30 14:58 51.83300 6.10094 25364 ft 400 kts 129°
2026-04-30 14:58 51.81458 6.13468 25404 ft 401 kts 129°
2026-04-30 14:58 51.77755 6.20222 25394 ft 401 kts 129°
2026-04-30 14:59 51.74074 6.26938 25643 ft 404 kts 129°
2026-04-30 15:00 51.68446 6.37204 26684 ft 411 kts 129°
2026-04-30 15:00 51.64643 6.44107 27347 ft 414 kts 129°
2026-04-30 15:01 51.60797 6.51062 27958 ft 418 kts 129°
2026-04-30 15:01 51.58850 6.54561 28240 ft 420 kts 130°
2026-04-30 15:01 51.54935 6.61603 28833 ft 424 kts 129°
2026-04-30 15:02 51.52963 6.65141 29127 ft 426 kts 129°
2026-04-30 15:02 51.50983 6.68695 29396 ft 427 kts 130°
2026-04-30 15:03 51.44993 6.79432 30203 ft 434 kts 129°
2026-04-30 15:03 51.40943 6.86650 30672 ft 438 kts 130°
2026-04-30 15:04 51.36601 6.93559 31138 ft 442 kts 133°
2026-04-30 15:04 51.29983 7.03835 31972 ft 441 kts 133°
2026-04-30 15:05 51.23391 7.13990 32857 ft 438 kts 133°
2026-04-30 15:06 51.19007 7.20737 33309 ft 438 kts 133°
2026-04-30 15:06 51.14666 7.27442 33760 ft 437 kts 133°
2026-04-30 15:07 51.10291 7.34148 34205 ft 436 kts 133°
2026-04-30 15:07 51.05927 7.40810 34615 ft 434 kts 133°
2026-04-30 15:08 51.01569 7.47437 34917 ft 434 kts 133°
2026-04-30 15:08 50.95025 7.57366 35366 ft 434 kts 133°
2026-04-30 15:09 50.90646 7.63997 35420 ft 436 kts 133°
2026-04-30 15:10 50.81851 7.77236 35382 ft 437 kts 133°
2026-04-30 15:11 50.69096 7.97696 35388 ft 436 kts 128°
2026-04-30 15:13 50.58888 8.15371 35396 ft 436 kts 128°
2026-04-30 15:14 50.44535 8.39939 35420 ft 437 kts 128°
2026-04-30 15:17 50.25999 8.71390 35402 ft 436 kts 128°
2026-04-30 15:19 50.09412 8.99127 35389 ft 437 kts 129°
2026-04-30 17:39 37.07658 26.43392 33848 ft 442 kts 164°
2026-04-30 17:41 36.86771 26.57498 31078 ft 443 kts 117°
2026-04-30 17:42 36.84398 26.64545 30175 ft 437 kts 113°
2026-04-30 17:42 36.80883 26.74939 28572 ft 427 kts 114°
2026-04-30 17:43 36.78569 26.81682 27584 ft 419 kts 114°
2026-04-30 17:44 36.75182 26.91561 26223 ft 407 kts 114°
2026-04-30 17:44 36.71851 27.01186 24914 ft 400 kts 114°
2026-04-30 17:46 36.66357 27.16943 22502 ft 392 kts 115°
2026-04-30 17:47 36.62061 27.29218 20619 ft 381 kts 115°
2026-04-30 17:48 36.57879 27.41100 18938 ft 371 kts 115°
2026-04-30 17:48 36.54798 27.49831 17705 ft 368 kts 115°
2026-04-30 17:49 36.50706 27.61396 16092 ft 362 kts 115°
2026-04-30 17:50 36.46712 27.72726 14587 ft 352 kts 110°
2026-04-30 17:51 36.45400 27.81469 13442 ft 336 kts 99°
2026-04-30 17:52 36.44287 27.89844 12388 ft 322 kts 100°
2026-04-30 17:53 36.38339 28.01188 10683 ft 314 kts 128°
2026-04-30 17:54 36.33317 28.09288 9766 ft 282 kts 126°
2026-04-30 17:55 36.28789 28.17148 8332 ft 278 kts 126°
2026-04-30 17:56 36.24687 28.24207 7153 ft 273 kts 126°
2026-04-30 17:57 36.22967 28.30549 6201 ft 267 kts 72°
2026-04-30 17:58 36.27023 28.34502 5266 ft 257 kts 11°
2026-04-30 17:59 36.33750 28.36299 4240 ft 237 kts 12°
2026-04-30 18:00 36.40081 28.38138 3347 ft 229 kts 12°
2026-04-30 18:00 36.44536 28.38585 2635 ft 209 kts 338°
2026-04-30 18:01 36.46758 28.36409 2192 ft 206 kts 302°
2026-04-30 18:02 36.47263 28.31320 1857 ft 198 kts 251°
2026-04-30 18:02 36.45949 28.27153 1905 ft 164 kts 250°
2026-04-30 18:03 36.44787 28.23169 1899 ft 164 kts 250°
2026-04-30 18:04 36.43759 28.19618 1673 ft 136 kts 251°
2026-04-30 18:05 36.42501 28.15207 813 ft 135 kts 250°
2026-04-30 18:06 36.41200 28.10857 166 ft 133 kts 250°
2026-04-30 18:07 36.40345 28.08040 34 ft 25 kts 226°
2026-04-30 18:08 36.40185 28.08038 33 ft 16 kts 70°
2026-04-30 18:09 36.40372 28.08669 33 ft 23 kts 70°
2026-04-30 18:10 36.40336 28.09027 33 ft 0 kts 160°